Location: Chakepay
(13.3931°S, 72.1925°W)
Time: 13:48:45
(UTC+00:00)

H-2A R/B - Pass Details

Date: 15 November 2019
Orbit: 733 x 838 km, 98.3° (Epoch: 09 December)

Event Time Altitude Azimuth Distance (km) Brightness Sun altitude
Rises 01:53:32 0° 184° (S) 3,344 5.8 -39.4°
Reaches altitude 10° 01:56:03 10° 193° (SSW) 2,421 5.0 -39.9°
Enters shadow 01:57:57 20° 206° (SSW) 1,815 4.4 -40.3°
